Regional Weather Roundup
Issued by NWS

Home | Current Version | Previous Version | Graphics & Text | Print | Product List | Glossary On
Versions: 1 2 3 4 5 6 7 8 9 10 11 12 13 14 15 16 17 18 19 20 21 22 23 24 25 26 27 28 29 30 31 32 33 34 35 36 37 38 39 40 41 42 43 44 45 46 47 48 49 50
000
ASUS43 KBIS 210202
RWRND

NORTH DAKOTA REGIONAL WEATHER ROUNDUP
NATIONAL WEATHER SERVICE BISMARCK ND
800 PM CST MON NOV 20 2017

NOTE: "FAIR" INDICATES FEW OR NO CLOUDS BELOW 12,000 FEET WITH NO
SIGNIFICANT WEATHER AND/OR OBSTRUCTIONS TO VISIBILITY.


NDZ001>003-009>011-017-210300-
NORTHWEST NORTH DAKOTA

CITY           SKY/WX    TMP DP  RH WIND       PRES   REMARKS
WILLISTON      CLOUDY    21  10  62 NW21G26   29.82R WCI   5
MINOT          PTCLDY    23  13  65 W25G37    29.69R WCI   7
MINOT AFB      CLEAR     19   7  61 NW29G46   29.67R WCI   0
$$

NDZ018>021-031>035-040>046-210300-
SOUTHWEST NORTH DAKOTA

CITY           SKY/WX    TMP DP  RH WIND       PRES   REMARKS
BISMARCK       MOCLDY    39  17  41 NW21G29   29.69R
DICKINSON      CLOUDY    32  16  51 NW15      29.71R
GARRISON         N/A     27  17  66 NW25G35   29.68R WCI  12
HETTINGER ARPT CLOUDY    35  19  52 NW13      29.75R
$$

NDZ004>008-012>016-024-026-027-054-210300-
NORTHEAST NORTH DAKOTA

CITY           SKY/WX    TMP DP  RH WIND       PRES   REMARKS
GRAND FORKS    CLEAR     31  24  75 NW22G36   29.48R WCI  18
GRND FRKS AFB  CLEAR     29  20  69 NW28G38   29.50R WCI  15
DEVILS LAKE    PTCLDY    23  17  78 NW29      29.55R WCI   6
$$

NDZ022-023-025-028>030-036>039-047>053-210300-
SOUTHEAST NORTH DAKOTA

CITY           SKY/WX    TMP DP  RH WIND       PRES   REMARKS
FARGO          CLEAR     37  29  72 W25G31    29.53R
JAMESTOWN      CLEAR     32  20  61 NW20G31   29.59R
$$





USA.gov is the U.S. government's official web portal to all federal, state and local government web resources and services.